ARIANE 5 DEB (SYLDA), 41594

Orbit data source: Space-Track

ARIANE 5 DEB (SYLDA), 41594 is space debris in HEO originally from a launch on Sat, 18 Jun 2016 UTC launched from the French Guiana (FRGUI). Debris objects in space refer to the collection of defunct objects orbiting the Earth. Examples of debris include non-operational satellites, rocket bodies, and fragments generated from explosions, collisions, or faulty payload assembly.

Loading next visibility...
Identifier
41594, 2016-039D
Orbit
HEO
Last TLE update
17 hours ago
Origin
Manufacturer
ADS/Bremen
Mission
Spacecraft
Bus & Motor
SYLDA 5, Unknown motor
Mass
440 kg wet, 440 kg dry
Launch date (UTC)
2016-06-18 (9 years ago)
Launch vehicle
Unknown
Launch site
French Guiana (FRGUI)
Object type
Payload
Rocket body
Debris
Shape & HBR
Cyl, 5.5 m
Radar Cross Section
27.391 m², Large (>1 m²)

Expand to show TLE details & history

TLE from 17 hours ago
0 ARIANE 5 DEB (SYLDA)
1 41594U 16039D   25186.46176671  .00002212  00000-0  18880-2 0  9996
2 41594   5.9814 237.3543 5704811 146.8661 267.4896  4.37838860101334
Epoch: 2025-07-05T11:04Z
TLE epoch observation values (Epoch: 2025-07-05T11:04:56.643Z)
Latitude
-0°
Longitude
147.5109°
Altitude
13,990.035 km
Speed
3.726 km/s
True Right ascension
15h 49m 47s
True Declination
0° 00' 00"
Sunlit
Object was in daylight at epoch
Visualization orbit readout
Latitude
4.56279°
Longitude
-163.6195°
Altitude
5,244.609 km
Speed
6.583 km/s
Apparent Right ascension
20h 33m 32s
Apparent Declination
-20° 21' 09"
Sunlit
Object is in full shadow
Visualization observer readout
Local Sidereal Time
16:22:43
Azimuth
123.077° SE
Elevation
6.12°
Doppler factor
1
Orbital elements
Apogee altitude
18,416.721 km
Perigee altitude
403.135 km
Semi-major axis
15,788.065 km
Eccentricity
0.57048
Inclination
5.9814°
RAAN
237.3543°
Arg. of periapsis
146.8661°
True anomaly
Unknown
Mean anomaly
267.4896°
Eccentric anomaly
Unknown
Mean motion
1.09408 °/min
Orbital period
329.04 mins
BSTAR
0.001888
Loading maneuver chart data...
Loading SW <> Apogee altitude chart data...
Loading historical data...
Loading historical data...
Loading historical data...
Loading historical data...
Loading historical data...
Loading historical data...
Loading historical data...
Other satellites on launch #39 in the year 2016 (2016-06-18 UTC)

ARIANE 5 DEB (SYLDA) Visibility forecast

Observer location: undefined°, undefined°

Span
Click to sort rows by Start time (UTC) header in descending order
Start Az.
Max El. time (UTC)
Max El. Az.
Max El.
End time (UTC)
End Az.
237 mins2025-07-06 21:57:33.193Z205.644° SW2025-07-06 23:43:33.193Z151.013° SSE25.89°2025-07-07 01:54:33.193Z118.35° SE
|